SCP
-0 -0 0 0 0 0 0 0 0 0 0 0 0 0 0 0 0 0 0 0 -0 -0 -0 -0 -0 -0 -0 -0 -0 -0 -0 -0 -0 -0 -0 -0 -0 -0 -0 -0 -0 -0 -0
-0 0 0 0 1 1 1 0 0 0 0 0 0 0 0 0 0 0 0 0 -0 -0 -0 -0 -0 -0 -0 -0 -0 -0 -0 -0 -0 -0 -0 -0 -0 -0 -0 -0 -0 -0 -0
0 0 1 0 0 1 1 1 1 1 0 0 0 0 0 0 0 0 0 0 0 -0 -0 -0 -0 -0 -0 -0 -0 -0 -0 -0 -0 -0 -0 -0 -0 -0 -0 -0 -0 -0 -0
0 0 1 0 1 1 1 1 1 1 0 0 0 0 0 0 0 0 0 0 0 0 -0 0 -0 -0 -0 -0 -0 -0 -0 -0 -0 -0 -0 -0 0 -0 -0 -0 -0 -0 -0
0 0 0 0 1 1 1 1 1 1 1 0 0 0 0 0 0 0 0 0 0 0 0 0 0 0 -0 -0 -0 -0 -0 -0 -0 -0 -0 -0 0 -0 -0 -0 -0 -0 -0
0 1 0 1 1 0 0 1 0 0 0 0 0 0 0 0 0 0 0 0 0 0 0 0 0 0 -0 -0 -0 -0 -0 -0 -0 -0 -0 0 0 0 0 0 0 0 0
1 0 1 1 1 1 1 1 1 0 0 0 0 0 0 0 0 0 0 0 0 0 0 0 0 0 0 -0 -0 -0 -0 -0 -0 -0 -0 0 0 0 0 0 0 0 0
0 0 0 0 0 0 0 1 1 0 0 0 0 0 0 0 0 0 0 0 0 0 0 0 0 0 0 0 0 -0 -0 -0 -0 0 0 -0 0 0 0 0 0 0 0
0 0 0 0 0 0 0 0 0 0 0 0 0 1 0 0 0 0 0 0 0 0 0 0 0 0 0 0 0 0 0 -0 -0 0 0 0 0 0 0 0 0 0 0
0 0 0 0 0 0 0 0 0 0 1 0 0 0 0 0 0 0 0 0 0 0 0 0 0 0 0 0 0 0 0 0 0 0 -0 0 0 0 -0 0 0 0 0
0 0 0 0 0 0 0 0 0 0 0 1 0 0 0 0 0 0 0 0 0 0 0 0 0 0 0 0 0 0 0 0 0 0 0 0 0 0 0 -0 0 0 0
0 0 0 0 0 0 0 0 0 0 0 0 0 0 0 0 0 1 0 0 0 0 0 0 0 0 0 0 0 0 0 0 0 0 0 0 0 0 0 0 0 0 0
0 0 0 0 0 0 0 0 0 0 0 0 0 0 0 0 0 0 1 0 0 0 0 0 0 0 0 0 0 0 0 0 0 0 0 0 0 0 0 0 0 0 0
0 0 0 0 0 -0 0 0 0 0 0 0 0 0 0 0 0 0 1 0 0 0 0 0 0 0 0 0 1 0 0 0 0 0 0 0 0 0 0 0 0 0 0
-0 -0 0 -0 -0 0 0 0 -0 0 0 0 0 0 0 0 0 0 0 0 0 0 0 0 0 0 0 0 1 1 1 0 0 0 0 0 0 0 0 0 0 0 0
0 0 -0 -0 0 -0 -0 -0 0 0 0 0 0 0 0 0 0 0 0 0 0 1 0 0 0 0 0 0 0 0 0 0 0 0 0 0 0 0 0 0 0 0 0
0 0 0 -0 -0 0 -0 0 0 0 0 0 0 0 0 0 0 0 0 0 0 0 0 0 0 0 0 0 0 0 0 0 0 0 0 0 0 0 0 0 0 0 0
0 0 0 0 0 -0 -0 -0 0 0 0 0 0 0 0 0 0 0 0 0 0 0 0 0 0 0 0 0 0 0 0 0 0 0 0 0 0 0 0 0 0 0 0
0 0 0 0 0 -0 -0 -0 -0 -0 -0 0 0 0 0 0 0 0 0 0 0 0 0 0 0 0 0 0 0 0 0 0 0 0 0 0 0 0 0 0 0 0 0
0 0 -0 -0 -0 -0 -0 -0 -0 -0 -0 0 0 0 0 0 0 0 0 0 0 0 0 0 0 0 0 0 0 0 0 0 0 0 0 0 0 0 0 0 0 0 0
0 0 0 -0 -0 -0 0 -0 -0 -0 -0 -0 -0 -0 0 0 -0 0 0 0 0 0 0 0 0 0 0 0 0 0 0 0 0 0 0 0 0 0 0 0 0 0 0
0 0 0 0 0 0 -0 -0 0 0 0 0 0 0 0 0 0 0 0 0 0 0 0 0 0 0 0 0 0 0 0 0 0 0 0 0 0 0 0 0 0 0 0
0 0 0 0 0 0 0 -0 -0 0 0 0 0 0 0 0 0 0 0 0 0 0 0 0 0 0 0 0 0 0 0 0 0 0 0 0 0 0 0 0 0 0 0
0 0 0 0 0 0 0 0 0 0 0 0 0 0 0 0 0 0 0 0 0 0 0 0 0 0 0 0 0 0 0 0 0 0 0 0 0 0 0 0 0 0 0
0 0 0 0 0 0 0 0 0 0 0 0 0 0 0 0 0 0 0 0 0 0 0 0 0 0 0 0 0 0 0 0 0 0 0 0 0 0 0 0 0 0 0
0 0 0 0 0 0 0 0 0 0 0 0 0 0 0 0 0 0 0 0 0 0 0 0 0 0 0 0 0 0 0 0 0 0 0 0 0 0 0 0 0 0 0
Wind_Speed_500mb
54 35 30 28 24 24 20 17 18 19 23 26 30 34 34 35 40 45 42 30 33 30 28 28 26 27 27 27 27 26 25 25 23 22 21 20 18 18 17 18 18 16 16
35 38 30 31 32 29 23 18 18 22 23 27 31 34 37 33 35 43 47 40 36 34 32 31 32 33 30 29 30 30 28 28 27 25 24 23 22 20 20 19 20 19 18
39 37 32 32 36 36 36 28 24 27 29 28 31 35 36 37 33 37 45 47 43 36 37 36 38 36 30 31 33 32 31 31 29 27 27 26 27 25 25 24 24 22 21
37 38 39 39 40 43 45 44 36 35 33 34 32 35 37 38 37 35 39 46 50 43 41 41 40 38 36 36 36 36 34 34 33 32 31 31 32 31 30 30 28 27 27
34 35 39 44 43 47 51 51 51 44 40 38 37 34 37 39 38 40 39 41 50 53 49 46 36 40 38 38 41 40 38 37 37 36 35 36 36 39 34 36 34 32 31
36 41 42 40 43 49 53 56 56 46 46 42 41 39 37 35 34 34 31 36 42 44 49 48 48 45 42 41 44 44 42 41 37 38 37 39 39 38 39 40 40 40 38
44 45 51 52 48 49 48 47 51 53 46 47 40 40 39 36 34 35 33 32 42 42 40 39 41 44 47 41 43 48 47 45 43 42 46 43 43 46 42 45 40 42 44
48 51 54 56 54 51 46 42 48 49 44 42 35 32 22 35 39 37 35 31 33 36 35 35 39 42 42 39 42 44 49 50 48 46 48 47 46 41 41 42 42 40 44
39 42 53 55 55 50 54 50 50 52 40 39 42 30 15 20 22 38 38 35 35 37 34 33 34 38 41 43 43 45 48 51 49 50 54 49 52 52 46 44 41 41 42
34 40 40 44 55 51 50 56 48 51 48 39 44 42 34 18 16 12 27 35 33 36 34 34 35 36 40 44 48 48 48 52 52 50 52 54 55 44 48 45 47 41 45
27 26 34 39 42 43 40 45 47 50 47 44 43 35 44 43 23 16 10 17 32 33 34 36 34 33 36 40 47 49 49 50 52 49 49 53 56 51 43 50 50 44 42
23 21 24 37 35 36 40 41 43 47 48 48 42 37 43 39 45 28 21 13 12 20 21 26 34 36 38 40 42 44 43 43 45 46 48 51 50 50 50 47 48 49 46
21 18 13 16 30 31 30 34 37 42 46 47 50 45 39 45 40 42 43 32 28 28 35 33 29 31 34 38 36 35 33 38 42 42 42 45 48 45 42 43 44 45 43
22 17 10 5 8 21 27 33 35 39 43 42 45 46 45 45 45 43 44 46 41 26 32 29 31 29 31 30 30 28 29 31 31 31 32 35 39 43 42 41 42 39 39
21 14 10 5 5 13 21 28 33 33 35 37 40 42 43 41 44 53 53 52 44 36 31 22 26 28 25 27 33 28 27 27 26 26 26 25 26 31 37 40 45 42 39
20 16 12 7 9 12 15 22 24 27 28 32 35 36 39 40 38 41 53 54 48 44 38 30 31 27 27 27 27 32 26 21 19 16 19 20 19 22 27 33 37 38 39
19 20 16 10 7 8 10 13 16 19 22 24 29 33 36 39 41 41 43 49 49 49 44 42 39 38 31 25 21 23 23 20 18 14 9 7 13 20 24 27 27 27 28
16 17 19 17 12 5 1 4 6 9 12 16 20 24 28 33 38 40 40 44 47 37 40 44 36 19 15 21 16 13 15 16 14 16 16 11 15 16 19 19 18 18 16
16 16 17 18 20 16 11 8 5 3 4 5 8 12 15 19 23 21 27 30 23 18 22 20 27 22 18 22 13 11 7 3 7 10 10 11 15 13 12 12 13 13 15
16 18 19 19 18 18 19 18 15 11 7 4 1 1 2 3 3 6 3 5 10 13 14 6 5 6 4 4 8 12 15 13 11 12 15 17 14 17 13 9 8 13 11
11 14 15 16 17 20 27 23 20 18 15 12 8 4 2 3 2 3 2 3 7 6 11 10 4 3 4 5 9 9 16 16 16 17 22 28 27 14 18 23 20 13 15
7 11 11 13 15 17 19 15 13 12 11 12 14 14 12 10 8 7 6 4 1 0 1 1 3 3 4 8 14 16 15 14 11 13 11 10 12 13 13 7 15 19 18
6 7 9 10 11 15 18 13 11 12 12 13 13 10 9 11 15 16 14 11 11 10 7 5 5 4 5 5 6 8 6 5 4 3 6 7 7 4 4 7 10 17 18
9 6 6 7 9 14 19 19 18 15 13 16 22 25 26 28 29 26 23 22 24 25 26 21 22 22 17 14 12 13 11 5 5 3 4 4 9 12 14 17 22 22 19
13 11 9 9 10 9 15 16 16 15 15 20 22 23 22 22 25 22 17 18 21 26 24 22 21 21 18 16 14 15 11 9 7 7 4 3 7 8 10 11 13 14 17
16 11 11 12 13 9 12 10 10 12 9 12 15 16 17 15 17 14 12 14 13 19 18 17 18 17 17 16 13 10 10 6 3 3 4 2 1 2 3 8 10 13 13
Wind_Direction_500mb
258 250 241 233 232 232 229 238 243 237 236 237 238 236 238 239 234 229 230 235 225 223 222 215 210 232 228 226 225 225 225 224 222 219 217 219 216 217 216 215 210 206 203
237 246 239 239 237 234 236 242 247 246 240 242 242 245 242 243 239 232 232 230 228 230 226 225 235 235 229 231 231 230 231 232 230 229 226 224 217 229 226 222 217 216 212
246 248 247 244 242 241 244 241 259 262 253 250 248 247 248 240 238 235 236 233 233 237 233 237 238 234 237 237 239 234 234 235 235 235 232 229 224 228 235 230 226 223 219
263 259 257 251 246 245 247 249 255 260 257 252 254 253 250 241 243 242 242 239 235 235 238 246 245 235 239 237 239 239 239 240 239 239 237 237 235 234 236 235 232 230 228
270 266 266 253 249 248 249 255 260 257 256 254 255 259 257 247 247 244 245 241 237 235 241 248 251 245 243 242 246 242 242 243 243 244 242 241 241 239 241 242 238 235 233
269 264 267 252 260 254 252 253 254 252 252 256 255 256 254 251 250 249 244 244 239 237 242 251 250 246 245 253 244 246 245 247 245 246 246 246 245 245 243 243 242 239 237
267 264 259 257 256 250 253 259 252 250 252 251 253 253 253 252 250 247 244 243 230 232 241 250 243 244 247 251 248 247 246 248 248 247 237 236 244 245 250 243 245 243 242
269 263 260 258 255 253 250 245 247 251 249 244 242 248 260 251 248 246 243 239 233 235 244 244 240 244 250 255 255 253 249 247 250 250 250 246 241 248 251 245 246 245 242
273 265 256 252 253 250 253 244 242 246 243 236 232 224 225 236 243 244 246 244 240 243 245 245 244 248 251 257 258 254 249 248 250 256 251 248 246 247 248 245 246 245 246
285 272 259 249 245 248 249 240 231 242 241 229 226 223 226 234 233 256 249 244 240 243 242 246 249 251 253 255 259 259 257 255 256 262 253 249 249 253 243 247 242 245 243
299 285 264 252 245 242 236 238 228 236 239 230 226 227 230 238 249 246 260 253 243 248 252 251 251 259 265 266 265 262 260 259 259 258 254 252 249 255 258 242 238 243 245
325 299 289 244 238 232 232 234 237 237 235 233 226 229 232 240 242 253 249 260 276 272 264 259 267 273 277 274 271 268 265 260 259 254 253 252 252 256 259 242 240 243 251
343 327 309 257 239 235 234 231 234 235 233 231 229 232 235 237 245 247 254 270 276 273 274 275 270 269 266 271 268 258 254 251 253 255 251 249 253 251 245 238 243 246 249
345 345 337 330 258 231 226 231 239 241 234 233 230 232 238 241 244 253 256 262 269 269 276 265 272 269 263 265 260 258 258 253 253 255 256 255 249 245 240 242 237 244 250
350 344 348 344 250 229 226 236 244 238 232 233 233 235 240 244 245 245 253 259 257 263 265 267 265 265 267 269 254 251 253 253 256 257 256 260 260 254 251 246 239 239 239
13 357 343 312 278 262 249 241 240 234 233 234 231 235 239 244 245 245 245 251 253 255 257 260 258 258 279 290 279 246 252 247 248 247 246 244 255 256 253 242 240 244 246
20 15 11 345 284 259 250 244 235 232 234 237 239 242 245 244 246 247 246 246 253 258 259 255 255 267 280 273 259 243 240 235 229 237 240 240 236 241 244 248 251 251 252
32 41 39 38 48 72 188 216 219 216 225 243 249 248 248 249 250 249 246 247 255 259 265 245 259 227 264 240 223 233 227 230 227 223 210 226 237 241 246 243 244 241 241
52 55 58 63 67 75 80 87 88 145 226 227 235 237 251 255 254 254 261 243 262 266 269 273 264 265 253 219 218 191 190 262 308 282 263 253 248 224 209 219 229 236 229
69 68 68 66 69 78 79 79 81 83 83 96 84 9 281 302 115 163 271 306 252 235 226 144 113 114 100 119 308 291 274 288 275 269 244 239 244 227 187 217 234 213 203
71 66 71 75 77 86 85 80 74 75 76 71 68 75 199 217 170 344 14 204 159 112 41 74 124 208 259 306 296 288 280 261 256 235 230 242 229 217 231 232 225 225 249
83 77 76 77 75 76 75 79 79 75 84 87 90 82 81 86 84 69 65 77 44 5 219 200 211 225 276 284 291 294 298 256 236 257 244 220 179 219 249 227 160 170 192
136 110 102 93 88 89 78 76 92 92 91 99 101 100 87 81 79 82 82 83 77 75 94 60 348 274 354 36 9 33 23 202 260 141 173 156 148 156 199 246 235 230 240
170 154 138 123 113 107 83 72 68 78 91 105 103 97 103 102 94 84 82 85 87 88 80 79 78 80 76 65 67 76 69 61 91 126 199 178 191 203 204 215 227 234 236
188 175 164 128 115 114 108 87 77 79 97 107 106 107 106 105 97 89 84 75 77 77 72 62 60 67 64 55 52 56 67 69 67 61 101 138 181 182 205 227 233 252 286
195 184 161 155 149 131 121 99 83 78 101 114 116 114 109 102 100 90 74 76 81 84 79 72 68 62 56 54 51 48 47 44 67 83 350 115 186 217 276 276 278 287 282
Wind_Speed_850mb
54 35 30 28 24 24 20 17 18 19 23 26 30 34 34 35 40 45 42 30 33 30 28 28 26 27 27 27 27 26 25 25 23 22 21 20 18 18 17 18 18 16 16
35 38 30 31 32 29 23 18 18 22 23 27 31 34 37 33 35 43 47 40 36 34 32 31 32 33 30 29 30 30 28 28 27 25 24 23 22 20 20 19 20 19 18
39 37 32 32 36 36 36 28 24 27 29 28 31 35 36 37 33 37 45 47 43 36 37 36 38 36 30 31 33 32 31 31 29 27 27 26 27 25 25 24 24 22 21
37 38 39 39 40 43 45 44 36 35 33 34 32 35 37 38 37 35 39 46 50 43 41 41 40 38 36 36 36 36 34 34 33 32 31 31 32 31 30 30 28 27 27
34 35 39 44 43 47 51 51 51 44 40 38 37 34 37 39 38 40 39 41 50 53 49 46 36 40 38 38 41 40 38 37 37 36 35 36 36 39 34 36 34 32 31
36 41 42 40 43 49 53 56 56 46 46 42 41 39 37 35 34 34 31 36 42 44 49 48 48 45 42 41 44 44 42 41 37 38 37 39 39 38 39 40 40 40 38
44 45 51 52 48 49 48 47 51 53 46 47 40 40 39 36 34 35 33 32 42 42 40 39 41 44 47 41 43 48 47 45 43 42 46 43 43 46 42 45 40 42 44
48 51 54 56 54 51 46 42 48 49 44 42 35 32 22 35 39 37 35 31 33 36 35 35 39 42 42 39 42 44 49 50 48 46 48 47 46 41 41 42 42 40 44
39 42 53 55 55 50 54 50 50 52 40 39 42 30 15 20 22 38 38 35 35 37 34 33 34 38 41 43 43 45 48 51 49 50 54 49 52 52 46 44 41 41 42
34 40 40 44 55 51 50 56 48 51 48 39 44 42 34 18 16 12 27 35 33 36 34 34 35 36 40 44 48 48 48 52 52 50 52 54 55 44 48 45 47 41 45
27 26 34 39 42 43 40 45 47 50 47 44 43 35 44 43 23 16 10 17 32 33 34 36 34 33 36 40 47 49 49 50 52 49 49 53 56 51 43 50 50 44 42
23 21 24 37 35 36 40 41 43 47 48 48 42 37 43 39 45 28 21 13 12 20 21 26 34 36 38 40 42 44 43 43 45 46 48 51 50 50 50 47 48 49 46
21 18 13 16 30 31 30 34 37 42 46 47 50 45 39 45 40 42 43 32 28 28 35 33 29 31 34 38 36 35 33 38 42 42 42 45 48 45 42 43 44 45 43
22 17 10 5 8 21 27 33 35 39 43 42 45 46 45 45 45 43 44 46 41 26 32 29 31 29 31 30 30 28 29 31 31 31 32 35 39 43 42 41 42 39 39
21 14 10 5 5 13 21 28 33 33 35 37 40 42 43 41 44 53 53 52 44 36 31 22 26 28 25 27 33 28 27 27 26 26 26 25 26 31 37 40 45 42 39
20 16 12 7 9 12 15 22 24 27 28 32 35 36 39 40 38 41 53 54 48 44 38 30 31 27 27 27 27 32 26 21 19 16 19 20 19 22 27 33 37 38 39
19 20 16 10 7 8 10 13 16 19 22 24 29 33 36 39 41 41 43 49 49 49 44 42 39 38 31 25 21 23 23 20 18 14 9 7 13 20 24 27 27 27 28
16 17 19 17 12 5 1 4 6 9 12 16 20 24 28 33 38 40 40 44 47 37 40 44 36 19 15 21 16 13 15 16 14 16 16 11 15 16 19 19 18 18 16
16 16 17 18 20 16 11 8 5 3 4 5 8 12 15 19 23 21 27 30 23 18 22 20 27 22 18 22 13 11 7 3 7 10 10 11 15 13 12 12 13 13 15
16 18 19 19 18 18 19 18 15 11 7 4 1 1 2 3 3 6 3 5 10 13 14 6 5 6 4 4 8 12 15 13 11 12 15 17 14 17 13 9 8 13 11
11 14 15 16 17 20 27 23 20 18 15 12 8 4 2 3 2 3 2 3 7 6 11 10 4 3 4 5 9 9 16 16 16 17 22 28 27 14 18 23 20 13 15
7 11 11 13 15 17 19 15 13 12 11 12 14 14 12 10 8 7 6 4 1 0 1 1 3 3 4 8 14 16 15 14 11 13 11 10 12 13 13 7 15 19 18
6 7 9 10 11 15 18 13 11 12 12 13 13 10 9 11 15 16 14 11 11 10 7 5 5 4 5 5 6 8 6 5 4 3 6 7 7 4 4 7 10 17 18
9 6 6 7 9 14 19 19 18 15 13 16 22 25 26 28 29 26 23 22 24 25 26 21 22 22 17 14 12 13 11 5 5 3 4 4 9 12 14 17 22 22 19
13 11 9 9 10 9 15 16 16 15 15 20 22 23 22 22 25 22 17 18 21 26 24 22 21 21 18 16 14 15 11 9 7 7 4 3 7 8 10 11 13 14 17
16 11 11 12 13 9 12 10 10 12 9 12 15 16 17 15 17 14 12 14 13 19 18 17 18 17 17 16 13 10 10 6 3 3 4 2 1 2 3 8 10 13 13
Wind_Direction_850mb
258 250 241 233 232 232 229 238 243 237 236 237 238 236 238 239 234 229 230 235 225 223 222 215 210 232 228 226 225 225 225 224 222 219 217 219 216 217 216 215 210 206 203
237 246 239 239 237 234 236 242 247 246 240 242 242 245 242 243 239 232 232 230 228 230 226 225 235 235 229 231 231 230 231 232 230 229 226 224 217 229 226 222 217 216 212
246 248 247 244 242 241 244 241 259 262 253 250 248 247 248 240 238 235 236 233 233 237 233 237 238 234 237 237 239 234 234 235 235 235 232 229 224 228 235 230 226 223 219
263 259 257 251 246 245 247 249 255 260 257 252 254 253 250 241 243 242 242 239 235 235 238 246 245 235 239 237 239 239 239 240 239 239 237 237 235 234 236 235 232 230 228
270 266 266 253 249 248 249 255 260 257 256 254 255 259 257 247 247 244 245 241 237 235 241 248 251 245 243 242 246 242 242 243 243 244 242 241 241 239 241 242 238 235 233
269 264 267 252 260 254 252 253 254 252 252 256 255 256 254 251 250 249 244 244 239 237 242 251 250 246 245 253 244 246 245 247 245 246 246 246 245 245 243 243 242 239 237
267 264 259 257 256 250 253 259 252 250 252 251 253 253 253 252 250 247 244 243 230 232 241 250 243 244 247 251 248 247 246 248 248 247 237 236 244 245 250 243 245 243 242
269 263 260 258 255 253 250 245 247 251 249 244 242 248 260 251 248 246 243 239 233 235 244 244 240 244 250 255 255 253 249 247 250 250 250 246 241 248 251 245 246 245 242
273 265 256 252 253 250 253 244 242 246 243 236 232 224 225 236 243 244 246 244 240 243 245 245 244 248 251 257 258 254 249 248 250 256 251 248 246 247 248 245 246 245 246
285 272 259 249 245 248 249 240 231 242 241 229 226 223 226 234 233 256 249 244 240 243 242 246 249 251 253 255 259 259 257 255 256 262 253 249 249 253 243 247 242 245 243
299 285 264 252 245 242 236 238 228 236 239 230 226 227 230 238 249 246 260 253 243 248 252 251 251 259 265 266 265 262 260 259 259 258 254 252 249 255 258 242 238 243 245
325 299 289 244 238 232 232 234 237 237 235 233 226 229 232 240 242 253 249 260 276 272 264 259 267 273 277 274 271 268 265 260 259 254 253 252 252 256 259 242 240 243 251
343 327 309 257 239 235 234 231 234 235 233 231 229 232 235 237 245 247 254 270 276 273 274 275 270 269 266 271 268 258 254 251 253 255 251 249 253 251 245 238 243 246 249
345 345 337 330 258 231 226 231 239 241 234 233 230 232 238 241 244 253 256 262 269 269 276 265 272 269 263 265 260 258 258 253 253 255 256 255 249 245 240 242 237 244 250
350 344 348 344 250 229 226 236 244 238 232 233 233 235 240 244 245 245 253 259 257 263 265 267 265 265 267 269 254 251 253 253 256 257 256 260 260 254 251 246 239 239 239
13 357 343 312 278 262 249 241 240 234 233 234 231 235 239 244 245 245 245 251 253 255 257 260 258 258 279 290 279 246 252 247 248 247 246 244 255 256 253 242 240 244 246
20 15 11 345 284 259 250 244 235 232 234 237 239 242 245 244 246 247 246 246 253 258 259 255 255 267 280 273 259 243 240 235 229 237 240 240 236 241 244 248 251 251 252
32 41 39 38 48 72 188 216 219 216 225 243 249 248 248 249 250 249 246 247 255 259 265 245 259 227 264 240 223 233 227 230 227 223 210 226 237 241 246 243 244 241 241
52 55 58 63 67 75 80 87 88 145 226 227 235 237 251 255 254 254 261 243 262 266 269 273 264 265 253 219 218 191 190 262 308 282 263 253 248 224 209 219 229 236 229
69 68 68 66 69 78 79 79 81 83 83 96 84 9 281 302 115 163 271 306 252 235 226 144 113 114 100 119 308 291 274 288 275 269 244 239 244 227 187 217 234 213 203
71 66 71 75 77 86 85 80 74 75 76 71 68 75 199 217 170 344 14 204 159 112 41 74 124 208 259 306 296 288 280 261 256 235 230 242 229 217 231 232 225 225 249
83 77 76 77 75 76 75 79 79 75 84 87 90 82 81 86 84 69 65 77 44 5 219 200 211 225 276 284 291 294 298 256 236 257 244 220 179 219 249 227 160 170 192
136 110 102 93 88 89 78 76 92 92 91 99 101 100 87 81 79 82 82 83 77 75 94 60 348 274 354 36 9 33 23 202 260 141 173 156 148 156 199 246 235 230 240
170 154 138 123 113 107 83 72 68 78 91 105 103 97 103 102 94 84 82 85 87 88 80 79 78 80 76 65 67 76 69 61 91 126 199 178 191 203 204 215 227 234 236
188 175 164 128 115 114 108 87 77 79 97 107 106 107 106 105 97 89 84 75 77 77 72 62 60 67 64 55 52 56 67 69 67 61 101 138 181 182 205 227 233 252 286
195 184 161 155 149 131 121 99 83 78 101 114 116 114 109 102 100 90 74 76 81 84 79 72 68 62 56 54 51 48 47 44 67 83 350 115 186 217 276 276 278 287 282